Regional Weather Roundup
Issued by NWS

Home | Current Version | Previous Version | Graphics & Text | Print | Product List | Glossary On
Versions: 1 2 3 4 5 6 7 8 9 10 11 12 13 14 15 16 17 18 19 20 21 22 23 24 25 26 27 28 29 30 31 32 33 34 35 36 37 38 39 40 41 42 43 44 45 46 47 48 49 50
000
ASUS45 KABQ 290401
RWRNM
NEW MEXICO REGIONAL WEATHER ROUNDUP
NATIONAL WEATHER SERVICE ALBUQUERQUE NM
1000 PM MDT SAT MAY 28 2016

NOTE: "FAIR" MEANS FEW OR NO CLOUDS BELOW 12,000 FEET AGL WITH NO
       SIGNIFICANT WEATHER OR OBSTRUCTIONS TO VISION.

      THIS PRODUCT IS RELEASED AS TWO VERSIONS.  ONE VERSION NEAR
      THE TOP OF THE HOUR CONTAINING PRELIMINARY DATA FROM ALBUQUERQUE
      AND OTHER STATIONS.  A FINAL VERSION WITH ADDITIONAL DATA IS
      ISSUED ABOUT 10 MINUTES AFTER THE HOUR.

NMZ501-503-504-510>518-290500-
NORTHWEST PLATEAU/NORTHCENTRAL MOUNTAINS

CITY           SKY/WX    TMP DP  RH WIND       PRES   REMARKS
FARMINGTON     FAIR      63  24  22 NE6       30.07R
SANTA FE       FAIR      60  21  22 E7        30.14R
TAOS           MOCLDY    54  25  32 E9        30.21R

$$
NMZ402-403-502-505>509-290500-
WESTCENTRAL MOUNTAINS/SOUTHWEST MOUNTAINS

CITY           SKY/WX    TMP DP  RH WIND       PRES   REMARKS
GALLUP         FAIR      65  29  25 NW13      30.12S
GRANTS         FAIR      60  24  25 E8        30.14S
SILVER CITY      N/A     59   5  11 NW7       30.08S

$$
NMZ407-409-411-412-290500-
SOUTHERN DESERTS

CITY           SKY/WX    TMP DP  RH WIND       PRES   REMARKS
LORDSBURG      FAIR      73   7   7 SW12      29.98R
DEMING         FAIR      69  14  12 W6        29.99R
HOLLOMAN AFB   FAIR      66  12  12 N6        29.99R
ALAMOGORDO     FAIR      70  16  12 NE7       30.01R
T OR C         FAIR      74  10   8 CALM      30.02R

$$
NMZ519>523-290500-
CENTRAL VALLEYS/CENTRAL HIGHLANDS

CITY           SKY/WX    TMP DP  RH WIND       PRES   REMARKS
ALBUQUERQUE    FAIR      68  18  14 E8        30.07R
DOUBLE EAGLE   PTCLDY    61  23  23 CALM      30.11
CLINES CORNERS FAIR      56  18  22 SE9       30.19R
BELEN          FAIR      70  14  12 SE8       30.06R
SOCORRO        NOT AVBL

$$
NMZ524>526-539-540-290500-
SOUTHCENTRAL MOUNTAINS

CITY           SKY/WX    TMP DP  RH WIND       PRES   REMARKS
RUIDOSO        NOT AVBL

$$
NMZ527>531-290500-
NORTHEAST HIGHLANDS/NORTHEAST PLAINS

CITY           SKY/WX    TMP DP  RH WIND       PRES   REMARKS
LAS VEGAS      MOCLDY    59  26  28 S10       30.19R
RATON          FAIR      53  36  52 N10       30.17R
CLAYTON        CLOUDY    63  43  48 N8        30.13R

$$
NMZ532>537-290500-
EASTCENTRAL PLAINS

CITY           SKY/WX    TMP DP  RH WIND       PRES   REMARKS
TUCUMCARI      FAIR      64  32  30 S7        30.02R
CANNON AFB     FAIR      65  34  31 E9        30.06R
CLOVIS AIRPORT FAIR      66  37  34 E14       30.07R

$$
NMZ028-029-538-290500-
SOUTHEAST PLAINS

CITY           SKY/WX    TMP DP  RH WIND       PRES   REMARKS
ROSWELL        FAIR      70  26  19 S3        29.98R
ARTESIA        FAIR      72  25  17 SE6       29.98R
CARLSBAD       FAIR      74  32  21 S6        29.96R
HOBBS          FAIR      73  48  40 SE9       30.02R


$$




USA.gov is the U.S. government's official web portal to all federal, state and local government web resources and services.